Temperature
0 0 0 0 0 0 1 1 1 1 1 1 1 1 1 1 1 1 1 1 1 1 1 1 1 1 1 1 1 1 1 1 1 1 2 2 2 2 2 2 2 2 2
-0 -0 -0 -0 -0 -0 0 0 0 0 0 0 0 0 0 0 0 0 1 1 0 1 1 1 1 1 1 1 1 1 1 1 0 1 1 1 1 1 1 1 2 2 2
-1 -1 -1 -1 -1 -1 -1 -0 -0 -0 -0 -0 -0 -0 -0 -0 0 0 -0 -0 -0 -0 -0 0 0 0 0 -0 -0 -0 -0 -0 -0 -0 -0 0 0 0 1 1 1 1 1
-1 -1 -1 -1 -1 -1 -1 -1 -1 -1 -1 -1 -1 -1 -1 -1 -1 -1 -1 -1 -1 -1 -1 -1 -1 -1 -1 -1 -1 -1 -1 -1 -1 -1 -1 -1 -1 -0 -0 -0 -0 0 -0
-2 -2 -2 -2 -2 -2 -2 -2 -1 -1 -2 -1 -1 -1 -1 -1 -1 -1 -1 -1 -1 -1 -1 -1 -1 -1 -1 -1 -2 -1 -2 -2 -2 -2 -2 -1 -1 -1 -1 -1 -1 -1 -1
-3 -3 -2 -2 -2 -2 -2 -2 -2 -2 -2 -2 -2 -2 -2 -2 -2 -2 -2 -2 -2 -2 -2 -2 -2 -2 -2 -2 -2 -2 -2 -2 -2 -2 -2 -2 -2 -2 -2 -2 -2 -2 -2
-3 -3 -3 -3 -3 -3 -3 -3 -3 -3 -3 -3 -3 -3 -3 -3 -3 -3 -3 -3 -3 -3 -2 -3 -3 -3 -3 -3 -3 -3 -3 -3 -3 -2 -3 -2 -2 -2 -2 -2 -2 -2 -3
-4 -4 -4 -4 -4 -4 -4 -4 -4 -4 -4 -4 -4 -4 -4 -3 -3 -3 -3 -3 -3 -3 -3 -3 -3 -3 -3 -3 -3 -3 -3 -3 -3 -3 -3 -3 -3 -3 -3 -3 -3 -3 -3
-4 -4 -4 -4 -4 -4 -4 -4 -4 -4 -4 -4 -4 -4 -4 -4 -4 -4 -4 -4 -4 -4 -4 -4 -4 -4 -4 -4 -4 -4 -4 -4 -4 -4 -4 -4 -4 -4 -4 -4 -4 -4 -4
-5 -5 -5 -5 -5 -5 -5 -5 -5 -5 -5 -5 -5 -5 -5 -5 -5 -5 -5 -5 -5 -5 -4 -4 -4 -4 -4 -4 -5 -5 -4 -4 -4 -5 -5 -5 -4 -4 -4 -4 -4 -4 -5
-6 -6 -6 -6 -6 -6 -6 -6 -6 -6 -6 -6 -6 -6 -5 -5 -5 -5 -5 -5 -5 -5 -5 -5 -5 -5 -5 -5 -5 -5 -5 -5 -5 -5 -5 -5 -5 -5 -5 -5 -5 -5 -5
-6 -6 -6 -6 -7 -7 -7 -7 -7 -7 -7 -7 -7 -7 -6 -6 -6 -6 -6 -6 -6 -6 -6 -6 -6 -6 -6 -5 -6 -6 -6 -6 -5 -5 -5 -5 -5 -5 -5 -5 -5 -5 -5
-7 -7 -7 -7 -7 -7 -7 -8 -8 -8 -8 -8 -8 -7 -7 -7 -7 -7 -7 -7 -7 -7 -6 -6 -6 -6 -6 -6 -6 -6 -6 -6 -6 -6 -6 -6 -5 -5 -6 -6 -6 -6 -6
-8 -8 -8 -8 -8 -8 -8 -8 -8 -8 -8 -8 -8 -8 -8 -8 -8 -8 -7 -7 -7 -7 -7 -7 -7 -7 -7 -7 -7 -7 -7 -7 -7 -7 -7 -6 -6 -6 -6 -6 -7 -7 -6
-8 -8 -9 -9 -8 -9 -9 -9 -9 -9 -9 -9 -9 -9 -9 -8 -8 -8 -8 -8 -8 -8 -8 -8 -8 -8 -7 -7 -7 -7 -7 -7 -8 -8 -8 -7 -7 -7 -7 -7 -7 -7 -7
-9 -9 -9 -9 -9 -9 -9 -9 -9 -10 -10 -10 -10 -10 -9 -9 -9 -9 -9 -9 -8 -8 -8 -8 -8 -8 -8 -8 -8 -8 -8 -8 -8 -8 -8 -8 -8 -8 -8 -8 -8 -8 -8
-9 -9 -9 -9 -10 -10 -10 -10 -10 -10 -10 -10 -10 -10 -10 -10 -9 -9 -9 -9 -9 -9 -9 -9 -9 -9 -9 -9 -9 -9 -9 -8 -9 -9 -8 -8 -8 -8 -8 -8 -8 -8 -8
-10 -10 -10 -10 -10 -10 -10 -10 -10 -10 -10 -10 -10 -10 -10 -10 -10 -10 -10 -10 -10 -10 -10 -9 -9 -9 -9 -9 -9 -9 -9 -9 -9 -9 -9 -9 -9 -9 -9 -9 -9 -9 -9
-10 -10 -10 -10 -10 -10 -10 -11 -11 -11 -11 -11 -11 -11 -11 -11 -10 -10 -10 -10 -10 -10 -10 -10 -10 -10 -10 -10 -10 -10 -10 -10 -10 -10 -10 -9 -9 -9 -9 -9 -9 -9 -9
-10 -10 -11 -11 -11 -11 -11 -11 -11 -11 -11 -11 -11 -11 -11 -11 -11 -11 -11 -11 -11 -11 -11 -11 -10 -10 -10 -10 -10 -10 -10 -10 -10 -10 -10 -10 -10 -10 -10 -9 -9 -10 -10
-11 -11 -11 -11 -11 -11 -11 -11 -12 -12 -12 -12 -12 -12 -12 -11 -11 -11 -11 -11 -11 -11 -11 -11 -11 -11 -11 -11 -11 -11 -11 -11 -11 -11 -10 -10 -10 -10 -10 -10 -10 -10 -10
-11 -11 -11 -11 -12 -12 -12 -12 -12 -12 -12 -12 -12 -12 -12 -12 -12 -12 -12 -12 -12 -12 -12 -12 -11 -11 -11 -11 -11 -11 -11 -11 -11 -11 -11 -11 -11 -11 -11 -11 -11 -11 -11
-12 -12 -12 -12 -12 -12 -12 -12 -13 -12 -12 -12 -12 -12 -12 -12 -12 -12 -12 -12 -12 -12 -12 -12 -12 -12 -12 -12 -12 -12 -12 -12 -12 -12 -11 -11 -11 -11 -11 -11 -11 -11 -11
-12 -12 -12 -12 -12 -12 -13 -13 -13 -13 -13 -13 -13 -13 -13 -13 -13 -13 -13 -13 -12 -12 -12 -12 -12 -12 -12 -12 -12 -12 -12 -12 -12 -12 -12 -12 -11 -11 -11 -11 -11 -11 -12
-12 -12 -12 -13 -13 -13 -13 -13 -13 -13 -13 -13 -13 -13 -13 -13 -13 -13 -13 -13 -13 -13 -13 -13 -13 -13 -13 -13 -13 -12 -12 -12 -12 -12 -12 -12 -12 -12 -12 -12 -12 -12 -12
-12 -12 -13 -13 -13 -13 -13 -13 -13 -13 -14 -14 -14 -14 -13 -13 -13 -13 -13 -13 -13 -13 -13 -13 -13 -13 -13 -13 -13 -13 -13 -13 -13 -13 -13 -12 -12 -12 -12 -12 -12 -12 -12
Wind_Speed
4 3 3 3 3 3 3 4 5 4 5 6 6 6 6 6 6 6 6 5 6 6 5 5 5 4 4 4 4 3 3 3 5 4 2 2 2 2 3 4 5 6 7
3 3 3 3 3 3 4 4 4 5 5 6 6 6 6 6 7 7 7 7 7 7 7 7 7 5 5 5 4 4 4 4 4 5 3 2 3 3 3 2 4 5 6
3 3 3 3 3 4 4 4 4 4 4 5 5 6 6 6 7 7 8 8 8 8 8 8 7 7 7 5 5 5 4 4 4 5 5 3 2 2 2 2 2 3 5
3 3 3 4 4 4 4 4 4 4 4 4 5 5 5 5 6 6 7 7 7 7 7 7 8 8 8 7 6 6 5 4 4 4 4 3 3 2 2 2 2 2 3
3 3 4 4 3 3 3 4 4 3 4 4 4 4 4 4 5 5 6 7 7 7 6 7 7 9 10 8 7 6 6 5 4 5 5 4 4 3 3 2 3 3 3
3 4 4 4 4 3 3 3 3 3 3 3 3 4 4 5 8 9 7 6 6 7 7 6 7 8 10 11 11 10 9 8 7 6 6 6 6 4 3 3 3 3 4
4 4 4 4 4 4 3 3 3 3 3 3 4 4 4 6 9 9 9 6 6 6 7 6 6 7 8 7 8 10 10 11 10 8 8 8 7 6 5 5 5 5 5
5 5 4 4 4 3 2 3 3 2 3 3 4 4 4 6 8 8 8 5 4 5 6 6 7 7 7 7 6 7 7 7 8 7 7 7 7 6 6 6 5 4 3
5 5 5 4 4 3 3 3 2 2 2 3 3 4 4 5 7 8 7 3 4 5 5 5 6 6 9 9 7 7 7 6 8 10 10 10 10 10 8 4 4 4 5
6 6 5 4 3 4 3 3 3 2 3 3 3 3 3 4 6 7 6 3 4 4 4 4 7 7 8 8 6 6 7 7 5 6 6 7 7 8 10 7 6 6 4
6 5 5 4 3 3 3 2 2 2 2 2 3 3 3 4 5 6 5 3 4 4 4 4 4 7 7 8 7 6 8 6 5 5 5 5 4 5 6 6 6 6 6
5 4 4 4 3 3 3 3 2 2 2 2 2 2 2 3 4 5 5 5 4 3 4 3 4 6 7 7 6 6 7 5 3 3 4 4 4 4 4 4 4 5 5
4 4 4 4 3 3 3 2 2 2 2 2 2 2 3 2 3 5 5 5 5 3 3 5 5 5 5 5 5 5 4 3 3 4 4 4 3 3 3 2 2 3 3
4 4 4 3 3 3 2 2 2 2 2 2 3 3 3 3 2 3 3 3 4 4 3 4 4 4 4 3 3 2 2 2 3 4 3 3 2 2 2 2 2 2 2
4 4 3 3 3 2 2 2 3 2 3 3 2 3 3 3 4 4 3 2 2 2 2 1 1 1 1 1 1 1 1 2 2 2 2 2 2 2 2 2 2 2 2
4 4 3 2 2 2 2 3 4 4 5 6 5 4 4 5 6 5 5 4 3 2 1 1 1 1 2 2 2 2 2 2 2 2 2 3 3 3 3 2 3 3 3
3 4 3 3 3 2 2 3 3 4 5 5 5 5 5 5 5 5 4 3 2 1 1 1 1 1 2 2 2 2 2 2 2 2 3 3 3 3 3 3 3 3 4
4 4 4 3 3 2 2 2 2 3 3 3 4 5 6 5 5 4 3 2 1 1 1 1 2 2 2 2 2 2 2 2 1 2 2 2 3 3 3 4 4 4 4
3 3 3 2 2 2 2 2 2 2 3 3 3 4 5 5 4 3 2 1 1 2 2 2 2 2 2 2 2 2 2 2 2 2 3 3 3 3 3 4 4 5 4
3 4 3 2 2 2 2 2 2 2 3 3 3 3 3 3 2 2 2 1 1 2 2 2 2 2 2 2 2 2 3 3 3 3 3 3 3 3 3 4 4 4 4
3 3 4 3 2 2 2 2 2 2 2 2 3 3 4 2 2 2 2 2 2 2 2 2 2 2 2 2 3 3 3 3 3 3 3 3 3 3 3 3 3 4 4
2 2 2 2 2 2 2 2 2 2 2 3 3 3 5 2 2 2 2 2 2 2 2 2 2 3 3 3 3 3 3 4 4 3 3 3 3 3 3 3 3 3 3
2 2 2 2 2 3 3 2 2 2 2 2 2 2 2 2 2 2 2 2 2 3 3 3 3 3 3 4 4 4 4 4 4 4 3 3 3 3 3 3 3 3 3
2 2 2 2 2 2 2 2 2 2 2 2 2 2 2 2 2 2 2 2 2 3 3 3 3 4 4 5 5 5 6 6 5 4 4 4 3 3 3 2 3 3 3
1 1 2 2 2 2 2 2 2 2 2 2 2 2 2 2 2 2 2 2 2 3 3 4 4 4 5 5 6 6 6 7 6 4 4 3 3 3 3 3 3 3 3
1 1 1 1 2 2 2 2 2 2 2 2 2 2 2 2 2 2 2 2 3 3 3 4 4 5 6 6 6 6 6 6 6 5 3 3 3 3 3 3 3 3 3
Wind_Direction
285 283 274 259 257 249 232 228 222 215 209 209 213 215 215 216 215 213 213 212 218 222 221 217 224 222 218 219 224 226 229 227 249 266 263 243 220 222 240 238 239 236 240
288 287 279 267 256 243 242 242 235 222 217 216 216 216 218 220 214 213 216 216 218 219 220 219 223 223 221 223 220 225 229 220 225 247 260 240 230 219 222 226 234 237 241
298 293 291 279 259 250 250 248 240 231 225 225 220 221 224 226 222 218 217 218 221 221 219 222 221 217 223 227 224 225 229 230 221 227 248 249 244 228 227 247 246 235 248
299 292 285 279 269 258 253 248 242 237 227 225 224 228 229 231 230 224 220 221 224 226 226 226 223 221 221 220 226 224 223 223 223 227 240 244 236 232 214 229 262 250 259
305 296 288 291 286 277 262 251 246 244 239 230 225 231 231 235 237 230 227 225 223 226 228 228 230 231 231 229 231 223 215 219 223 229 234 247 241 215 223 225 255 273 265
318 308 309 311 304 292 273 260 251 246 240 229 232 234 239 248 249 246 244 234 227 227 230 230 234 235 235 237 239 236 229 221 221 229 237 235 238 231 232 234 244 259 274
319 314 312 307 303 301 294 264 252 249 243 238 242 240 246 255 254 249 248 246 235 234 232 231 240 239 237 230 235 236 239 238 233 230 234 235 238 233 230 235 235 242 257
320 314 316 315 308 304 294 274 263 253 247 248 253 250 253 257 257 257 252 250 240 239 238 232 233 233 230 225 224 232 239 242 241 238 233 239 244 239 230 231 233 248 265
323 318 322 320 310 299 282 277 275 270 264 260 261 257 254 260 261 262 258 242 243 246 246 242 238 235 240 235 225 228 238 245 250 248 248 250 253 254 248 231 225 235 255
319 317 319 318 309 301 292 283 280 273 262 264 270 264 257 257 262 261 257 237 245 250 248 246 249 247 243 239 225 222 233 239 237 244 245 250 251 251 249 235 223 231 248
315 318 322 323 314 307 308 312 311 296 290 273 274 277 269 267 269 264 256 240 241 246 246 247 250 251 249 247 242 230 237 241 232 230 234 236 237 238 237 233 228 228 237
322 324 324 323 320 319 319 318 317 311 303 293 288 288 282 278 277 276 264 254 251 243 246 249 253 255 255 257 256 248 250 251 232 228 230 233 234 239 240 232 237 240 241
324 321 321 324 325 324 316 311 311 302 293 289 284 283 289 290 284 285 276 260 259 259 253 251 257 260 262 258 264 263 252 232 225 229 231 239 237 233 227 230 242 239 248
317 316 318 321 324 327 320 308 297 286 279 281 279 282 290 295 296 289 277 267 259 262 266 260 253 257 259 261 268 264 241 228 224 232 242 243 238 225 225 221 233 229 252
311 310 313 314 315 315 309 294 286 274 269 274 270 269 278 281 283 288 292 280 260 246 250 262 258 255 237 237 240 242 236 228 240 238 238 240 237 233 238 224 226 223 240
312 312 312 314 313 312 312 310 304 293 301 297 293 288 284 290 300 289 284 287 275 256 224 228 243 247 242 245 247 249 248 246 247 244 238 238 236 233 237 233 220 220 239
301 306 309 309 304 302 303 307 314 317 315 313 308 301 298 302 301 296 290 288 281 219 187 215 235 247 254 255 254 250 252 254 245 238 238 236 234 234 230 232 230 225 233
301 303 306 298 294 290 289 291 294 304 316 320 318 312 310 309 307 304 297 289 282 253 234 237 242 248 249 253 255 260 271 275 257 244 240 239 236 232 231 228 229 230 237
301 302 300 297 299 298 299 300 299 297 298 306 317 319 316 314 317 324 324 283 248 249 247 251 253 253 258 255 256 257 257 256 258 251 246 241 237 234 236 234 231 241 242
296 302 307 301 299 299 298 297 300 300 301 307 314 317 321 320 316 324 312 296 271 261 257 254 260 260 257 252 252 249 250 250 248 247 249 244 240 236 238 238 232 231 231
297 298 304 304 294 286 287 285 282 288 294 296 298 309 321 315 306 303 293 285 274 268 265 265 263 262 261 254 246 249 249 252 250 247 248 244 241 242 239 234 234 231 227
294 289 287 284 286 283 284 281 280 281 285 291 300 309 319 325 309 298 289 285 283 282 282 272 266 267 265 257 249 246 250 252 250 245 247 244 240 237 233 230 229 227 220
295 293 293 291 287 291 302 297 290 287 290 293 297 304 313 310 303 298 296 299 299 297 299 290 278 280 289 286 272 255 249 253 254 243 238 239 232 229 224 222 221 224 222
285 281 281 286 291 290 286 286 285 286 287 289 293 297 301 297 295 295 295 299 302 301 301 295 283 281 284 289 288 280 273 270 262 246 229 227 227 227 218 215 221 218 221
284 280 283 286 290 282 281 284 284 285 287 291 294 300 304 303 300 299 302 306 304 300 301 300 294 289 287 287 286 283 278 277 273 259 229 215 213 214 210 212 215 214 214
302 297 294 293 291 285 278 280 281 281 285 290 292 295 299 300 299 302 306 307 308 305 303 302 298 294 291 288 285 282 282 282 278 270 242 201 195 205 201 204 198 205 203
Height
1463 1462 1463 1463 1463 1464 1465 1466 1467 1469 1470 1471 1472 1473 1475 1476 1477 1478 1480 1481 1482 1483 1485 1486 1487 1489 1490 1491 1492 1493 1495 1496 1495 1494 1496 1498 1498 1499 1500 1501 1501 1502 1502
1459 1458 1458 1458 1459 1459 1459 1461 1462 1463 1464 1465 1467 1468 1469 1470 1471 1473 1474 1475 1476 1478 1479 1481 1482 1483 1484 1486 1487 1488 1489 1490 1491 1489 1490 1492 1493 1494 1494 1494 1495 1496 1497
1456 1455 1454 1454 1454 1454 1454 1456 1457 1457 1458 1460 1461 1462 1463 1464 1465 1466 1468 1469 1470 1472 1473 1474 1476 1477 1478 1479 1480 1482 1483 1484 1485 1485 1484 1486 1487 1488 1489 1489 1490 1491 1491
1452 1451 1449 1449 1449 1449 1449 1450 1450 1451 1452 1453 1455 1456 1457 1458 1459 1460 1461 1463 1464 1465 1467 1468 1469 1471 1472 1473 1474 1476 1477 1478 1479 1479 1479 1480 1481 1482 1483 1483 1484 1485 1485
1448 1446 1445 1445 1445 1444 1444 1444 1444 1445 1446 1447 1448 1449 1450 1451 1453 1454 1455 1456 1457 1459 1460 1461 1463 1464 1466 1467 1468 1469 1471 1472 1472 1473 1473 1474 1475 1476 1477 1478 1478 1479 1479
1444 1442 1441 1440 1439 1439 1438 1438 1438 1439 1440 1441 1442 1443 1444 1445 1447 1448 1450 1450 1451 1452 1453 1455 1456 1458 1459 1461 1462 1463 1465 1465 1466 1467 1467 1468 1469 1470 1472 1472 1472 1472 1472
1440 1438 1437 1436 1435 1433 1433 1433 1433 1433 1434 1435 1436 1437 1438 1439 1441 1442 1443 1444 1445 1446 1447 1448 1450 1451 1453 1454 1455 1457 1458 1459 1460 1461 1461 1461 1463 1464 1466 1466 1467 1467 1467
1436 1434 1433 1432 1430 1430 1429 1429 1429 1429 1429 1430 1431 1431 1432 1434 1435 1436 1437 1438 1439 1440 1441 1442 1443 1445 1446 1448 1449 1450 1451 1452 1453 1454 1455 1455 1457 1459 1460 1460 1461 1461 1462
1433 1431 1430 1428 1427 1426 1425 1425 1425 1425 1425 1425 1426 1427 1428 1429 1430 1431 1432 1432 1433 1433 1435 1436 1438 1439 1440 1442 1443 1443 1444 1446 1447 1448 1449 1450 1451 1452 1454 1455 1455 1455 1455
1430 1429 1427 1425 1424 1422 1421 1421 1421 1421 1421 1421 1422 1422 1423 1424 1424 1425 1426 1427 1427 1428 1429 1430 1432 1433 1435 1436 1437 1437 1438 1439 1441 1442 1443 1444 1445 1447 1448 1449 1449 1450 1449
1427 1425 1424 1422 1420 1419 1418 1418 1418 1417 1417 1417 1418 1418 1418 1419 1420 1421 1421 1422 1422 1422 1423 1425 1426 1428 1429 1430 1431 1432 1432 1434 1435 1436 1437 1438 1439 1440 1442 1443 1443 1444 1444
1424 1422 1420 1419 1418 1416 1415 1415 1414 1414 1413 1413 1414 1414 1414 1415 1416 1416 1416 1416 1417 1418 1418 1420 1421 1422 1424 1425 1425 1426 1427 1428 1429 1430 1431 1432 1433 1434 1436 1436 1437 1438 1438
1420 1419 1417 1416 1415 1414 1412 1412 1411 1411 1410 1410 1410 1410 1410 1411 1411 1412 1412 1412 1412 1413 1414 1415 1416 1418 1418 1419 1420 1421 1422 1423 1424 1425 1425 1426 1428 1429 1430 1431 1431 1432 1432
1417 1415 1414 1412 1411 1410 1410 1409 1408 1407 1407 1407 1406 1406 1406 1407 1407 1408 1407 1407 1408 1409 1410 1411 1412 1413 1414 1415 1416 1416 1417 1418 1419 1420 1421 1422 1423 1424 1425 1425 1426 1426 1426
1414 1412 1411 1409 1408 1407 1407 1406 1405 1405 1405 1404 1404 1404 1404 1403 1404 1405 1404 1404 1404 1405 1406 1407 1408 1408 1409 1410 1411 1412 1413 1414 1415 1416 1416 1417 1418 1419 1420 1420 1421 1421 1421
1411 1409 1408 1407 1406 1405 1404 1403 1403 1403 1402 1402 1402 1402 1401 1402 1402 1402 1402 1402 1402 1403 1403 1403 1403 1404 1405 1406 1407 1408 1409 1410 1411 1411 1412 1412 1413 1414 1415 1415 1416 1416 1416
1409 1407 1406 1404 1403 1402 1401 1400 1400 1400 1399 1399 1399 1398 1398 1398 1399 1398 1398 1399 1399 1399 1399 1399 1400 1401 1402 1403 1403 1404 1405 1406 1407 1407 1407 1408 1409 1409 1410 1410 1411 1411 1411
1406 1405 1404 1402 1401 1400 1399 1398 1397 1396 1395 1395 1396 1395 1395 1395 1395 1395 1395 1396 1395 1395 1395 1396 1396 1397 1398 1399 1400 1400 1401 1402 1402 1403 1403 1404 1404 1405 1405 1406 1406 1406 1406
1404 1402 1401 1400 1399 1398 1397 1396 1395 1394 1393 1392 1392 1392 1392 1392 1392 1392 1392 1392 1391 1392 1392 1393 1393 1394 1395 1395 1396 1397 1397 1398 1398 1399 1399 1400 1400 1401 1401 1401 1402 1402 1402
1401 1400 1399 1398 1397 1396 1395 1393 1392 1392 1391 1390 1389 1389 1389 1389 1388 1388 1388 1388 1388 1388 1389 1389 1390 1391 1391 1392 1393 1393 1394 1394 1395 1395 1395 1395 1396 1396 1397 1397 1397 1398 1398
1398 1397 1396 1395 1394 1393 1392 1391 1390 1389 1388 1388 1387 1387 1386 1386 1385 1385 1385 1385 1385 1385 1386 1386 1387 1387 1388 1389 1389 1389 1390 1390 1390 1390 1391 1391 1392 1392 1393 1393 1393 1393 1393
1396 1394 1393 1392 1391 1390 1390 1389 1388 1387 1386 1385 1385 1384 1384 1384 1383 1383 1382 1382 1382 1383 1383 1383 1384 1384 1385 1385 1385 1385 1386 1386 1386 1386 1387 1387 1388 1388 1389 1389 1389 1389 1390
1393 1392 1391 1390 1389 1388 1387 1386 1386 1385 1384 1383 1383 1382 1381 1381 1380 1380 1380 1380 1380 1380 1380 1381 1381 1381 1382 1382 1382 1382 1382 1382 1382 1383 1383 1383 1384 1384 1385 1385 1385 1386 1386
1391 1390 1388 1387 1386 1385 1384 1384 1383 1382 1382 1381 1380 1380 1379 1378 1378 1377 1377 1377 1377 1377 1377 1378 1378 1378 1378 1378 1378 1379 1379 1379 1379 1379 1380 1380 1380 1381 1381 1381 1382 1382 1382
1389 1387 1386 1385 1384 1383 1382 1381 1380 1380 1379 1379 1378 1377 1377 1376 1376 1375 1375 1375 1375 1375 1375 1375 1375 1375 1375 1375 1375 1375 1375 1375 1376 1376 1376 1377 1377 1377 1378 1378 1378 1379 1379
1386 1385 1384 1383 1382 1381 1380 1379 1378 1378 1377 1376 1376 1375 1375 1374 1374 1373 1373 1373 1373 1372 1372 1372 1372 1372 1372 1372 1372 1372 1372 1373 1373 1373 1374 1374 1374 1374 1375 1375 1375 1376 1376